Regional Weather Roundup
Issued by NWS Grand Forks, ND

Home | Current Version | Previous Version | Text Only | Print | Product List | Glossary Off
Versions: 1 2 3 4 5 6 7 8 9 10 11 12 13 14 15 16 17 18 19 20 21 22 23 24 25 26 27 28 29 30 31 32 33 34 35 36 37 38 39 40 41 42 43 44 45 46 47 48 49 50

818
ASUS43 KFGF 162031
RWRFGF
PRAIRIE TO PINES  WEATHER ROUNDUP
NATIONAL WEATHER SERVICE EASTERN NORTH DAKOTA/GRAND FORKS ND
300 PM CDT MON OCT 16 2017

 **SATELLITE DATA USED TO AUGMENT SKY COVER AT AUTOMATED STATIONS**
 *****  WEATHER ACROSS EASTERN NORTH DAKOTA  *****

CITY           SKY/WX    TMP DP  RH WIND       PRES   REMARKS
GRAND FORKS    FAIR      72  37  28 W13       29.82F
GRAND FRKS AFB FAIR      70  35  28 W17G24    29.82F
DEVILS LAKE    FAIR      66  37  34 W22       29.85F
FARGO          FAIR      70  36  28 SW23G37   29.87F
WAHPETON ARPT  NOT AVBL
$$

 ***** WEATHER ACROSS CENTRAL AND WESTERN NORTH DAKOTA  *****

CITY           SKY/WX    TMP DP  RH WIND       PRES   REMARKS
BISMARCK       FAIR      73  34  23 W23       29.92F
MINOT          FAIR      69  33  26 W17G26    29.87S
JAMESTOWN      FAIR      69  35  28 W16G25    29.88F
MINOT AFB      FAIR      67  34  29 NW20G25   29.85S
GARRISON         N/A     67  33  28 W23G35    29.90F
WILLISTON      FAIR      69  33  26 W17G25    29.93S
DICKINSON      FAIR      68  30  24 W22       29.96F
HETTINGER      FAIR      69  31  24 W17       30.03F
$$

 *****  OTHER AIRPORT OBSERVATIONS IN OUR AREA  *****

CITY           SKY/WX    TMP DP  RH WIND       PRES   REMARKS
WALHALLA       FAIR     N/A N/A N/A W14G23    29.77F
GRAFTON AIRPOR FAIR      66  37  34 W20G29    29.81F
VALLEY CITY AR FAIR      70  36  28 W22       29.89F
CANDO          FAIR      68  34  28 W21       29.85S
CAVALIER APRT  FAIR      68  39  34 W18G26    29.78S
GWINNER        CLEAR     70  37  30 SW17      29.92F
SHEYENNE NWR     N/A     70  35  28 SW20      29.95S
ROLLA          FAIR      64  34  32 W14       29.84R
 ***** THE ABOVE OBSERVATIONS ARE NON NWS ARE NOT QUALITY
       CONTROLLED AND MAY MIS-REPORT RAIN FOR SNOW...
$$

  *****  WEATHER ACROSS NORTHERN MINNESOTA  *****

CITY           SKY/WX    TMP DP  RH WIND       PRES   REMARKS
FLAG ISLAND    FAIR      61  36  39 SW18      29.74F
WARROAD        FAIR      64  39  39 SW21G29   29.78S
ROSEAU           N/A     64  39  39 SW18G29   29.78S
HALLOCK        FAIR      68  34  28 W21G26    29.78S
THF RVR FALLS  NOT AVBL
BAUDETTE       FAIR      64  35  34 S22G29    29.79F
WASKISH        FAIR      66  36  32 SW15G26   29.83F
CROOKSTON      FAIR      70  36  28 SW21      29.83F
STEPHEN NDAWN    N/A     66  37  34 SW12        N/A
GREENBUSH NDAW   N/A     64  37  36 SW17        N/A
$$
  *****  WEATHER ACROSS CENTRAL AND WEST MINNESOTA  *****

CITY           SKY/WX    TMP DP  RH WIND       PRES   REMARKS
FOSSTON        FAIR      63  36  36 S18G29    29.87F
BEMIDJI        FAIR      62  35  36 SW18G24   29.88F
PARK RAPIDS    FAIR      63  36  36 SW18G28   29.93F
ELBOW LAKE     FAIR      67  38  34 SW14      29.96F
WADENA         FAIR      63  39  42 S17G24    29.94F
DETROIT LAKES  FAIR      64  37  36 SW15G24   29.92F
MOORHEAD       FAIR      70  36  28 SW18G26   29.88F
FERGUS FALLS   FAIR      68  39  34 SW16G22   29.93F
MORRIS MN      FAIR      70  39  32 SW16      29.96F
STAPLES        FAIR      64  36  34 S13       29.97F
$$
  *****  WEATHER ELSEWHERE ACROSS MINNESOTA  *****

CITY           SKY/WX    TMP DP  RH WIND       PRES   REMARKS
DULUTH         FAIR      59  35  40 SW17G23   30.01F
INTRNTL FALLS  FAIR      62  33  33 S13G22    29.84F
ELY            FAIR      55  30  38 SW16G23   29.94F
CLOQUET        FAIR      61  30  31 S14       30.00F
WHEATON        FAIR      72  32  23 SW10      29.96F
BRAINERD       FAIR      62  34  35 S14G22    30.00F
HIBBING        FAIR      60  32  34 SW10      29.96F
ALEXANDRIA     FAIR      65  38  36 S16       30.00F
SAINT CLOUD    FAIR      63  37  38 SW16G22   30.04F
MINNEAPOLIS    FAIR      64  35  34 SW12      30.10F
$$

  *****  WEATHER ACROSS SOUTH DAKOTA  *****

CITY           SKY/WX    TMP DP  RH WIND       PRES   REMARKS
SIOUX FALLS    FAIR      72  38  29 S16G22    30.04F
BROOKINGS      FAIR      68  37  32 SW20G26   30.02F
WATERTOWN      FAIR      64  39  39 S16       29.98F
HURON          FAIR      67  41  38 SW8       30.01F
SISSETON         N/A     70  36  28 SW21G26   29.94F
ABERDEEN       FAIR      69  39  33 SW12      29.97F
MITCHELL       FAIR      73  39  29 SW9       30.01F
PIERRE         FAIR      68  38  33 W7        30.00F
MOBRIDGE       FAIR      74  35  24 NW14      29.94F
RAPID CITY     FAIR      76  25  15 N13       30.06F
$$

  *****  SOME WEATHER IN NEARBY STATES *****

CITY           SKY/WX    TMP DP  RH WIND       PRES   REMARKS
GLASGOW MT     FAIR      68  31  25 W18       29.96F
GREAT FALLS MT FAIR      65  18  16 SW26G38   30.09F
CHEYENNE WY    FAIR      73   7   7 W24G31    30.25F
SCOTTSBLUFF NE FAIR      77  17  10 NW14      30.13F
OMAHA NE       FAIR      73  34  23 S18G26    30.16F
DES MOINES IA  FAIR      69  34  27 SW14      30.21F
DAVENPORT IA   FAIR      64  36  35 W9G16     30.27F
CHICAGO IL     FAIR      62  37  39 W14       30.23F
EAU CLAIRE WI  FAIR      60  33  36 SW13G21   30.13F
LA CROSSE WI   FAIR      65  33  30 W10       30.16F
$$

  *****  SOME NATIONAL WEATHER *****

CITY           SKY/WX    TMP DP  RH WIND       PRES   REMARKS
LA GUARDIA NY  PTSUNNY   58  42  55 NW17      30.03R
RALEIGH NC     PTSUNNY   62  55  77 N7        30.10R
ATLANTA GA     FAIR      69  47  45 N17G23    30.09S
NEW ORLEANS LA PTSUNNY   74  52  46 N12G21    30.07F
OKLAHOMA CITY  FAIR      68  35  29 E6        30.34F
ALBUQUERQUE NM FAIR      67  24  19 CALM      30.41F
SALT LAKE CITY FAIR      61  25  25 VRB5      30.38F
LOS ANGELES CA FAIR      87  32  14 W14       30.03F
BOISE ID       FAIR      59  26  28 CALM      30.35F
SEATTLE WA     FAIR      59  47  64 S10       30.19F
$$

*** WEATHER ACROSS MANITOBA...SASKATCHEWAN AND ONTARIO ***
                ***ONTARIO***

CITY           SKY/WX    TMP DP  RH WIND       PRES   REMARKS
GERALDTON      PTSUNNY   46  34  61 SW15      29.92F
THUNDER BAY    PTSUNNY   55  34  44 SW13G21   29.96F
SIOUX LOOKOUT  PTSUNNY   54  36  50 S14G21    29.79
TORONTO        MOSUNNY   50  30  46 N12       30.21R
BIG TROUT LK   CLOUDY    43  36  75 S14G22    29.63F
PICKLE LAKE    CLOUDY    46  34  61 S10       29.76F
DRYDEN         CLOUDY    54  37  54 S10G20    29.78F
KENORA         MOSUNNY   59  36  41 S20G30    29.74F
$$
                *** MANITOBA***

CITY           SKY/WX    TMP DP  RH WIND       PRES   REMARKS
BRANDON        MOSUNNY   64  37  36 NW17G24   29.80S
DAUPHIN        SUNNY     66  34  30 W20G29    29.72S
ISLAND LAKE    MOSUNNY   50  37  62 SW13G21   29.48F
PILOT MOUND      N/A     61  36  39 W10G18      N/A
THE PAS        MOSUNNY   55  36  47 NW28G40   29.59R
THOMPSON       CLOUDY    46  43  87 W13G18    29.38R
WINNIPEG       PTSUNNY   63  39  42 W16G22    29.74F
LYNN LAKE      CLOUDY    39  36  87 NW21G30   29.45R
CHURCHILL      LGT SNOW  32  32 100 E7        29.56F
GILLAM         LGT RAIN  34  32  93 SE9       29.38F
$$
                ***SASKATCHEWAN***

CITY           SKY/WX    TMP DP  RH WIND       PRES   REMARKS
ESTEVAN        PTSUNNY   63  32  31 W13       29.88F
KINDERSLEY     MOSUNNY   61  30  31 S15G21    29.84F
LLOYDMINSTER   PTSUNNY   54  30  40 SW9       29.78F
PRINCE ALBERT  PTSUNNY   57  28  33 W15G28    29.78S
REGINA         PTSUNNY   64  32  29 W13       29.87F
YORKTON        SUNNY     64  30  27 W22G33    29.78S
N. BATTLEFORD  MOSUNNY   59  27  29 W10       29.83F
LA RONGE       MOSUNNY   52  34  50 W18G25    29.69S
SASKATOON      PTSUNNY   63  25  23 W15G23    29.83F
SWIFT CURRENT  SUNNY     63  28  27 SW8       29.89F
$$
NOTE: THESE ARE AUTOMATED STATIONS WITH LIMITED QUALITY CONTROL
      "FAIR" INDICATES FEW OR NO CLOUDS BELOW 12,000 FEET WITH NO
      SIGNIFICANT WEATHER AND/OR OBSTRUCTIONS TO VISIBILITY.
      SKY/WX - SKY CONDITION AND SIGNIFICANT WEATHER.
      TMP - AIR TEMPERATURE.    DP   - DEWPOINT TEMPERATURE.
      RH  - RELATIVE HUMIDITY.  PRES - PRESSURE.
      HX  - HEAT INDEX.         WCI  - WIND CHILL INDEX.
$




USA.gov is the U.S. government's official web portal to all federal, state and local government web resources and services.